Location: Alafon
(8.4500°N, 4.2333°E)
Time: 00:34:47
(UTC+00:00)

deb Explorer IX - Pass Details

Date: 29 July 2021
Orbit: 545 x 1092 km, 38.8° (Epoch: 16 September)

Event Time Altitude Azimuth Distance (km) Brightness Sun altitude
Rises 11:23:23 0° 247° (WSW) 2,746 ? 78.0°
Reaches altitude 10° 11:25:41 10° 256° (WSW) 1,893 ? 78.3°
Maximum altitude 11:29:41 36° 324° (NW) 988 ? 78.7°
Drops below altitude 10° 11:34:11 10° 30° (NNE) 2,133 ? 79.2°
Sets 11:36:56 0° 39° (NE) 3,148 ? 79.4°
